DETTK EDLE-EDKB

Flight info

Callsign DETTK
Flight time N/A
Altitude 2500
Route
Aircraft C172

Departure

Time N/A
Airport Essen-Mülheim Airport (EDLE)

Arrival

Time 2026-05-04 19:09
Airport Bonn-Hangelar Airfield (EDKB)
Time Latitude Longitude Altitude Speed Heading
2026-05-04 19:03 50.77366 7.07232 1921 ft 106 kts 159°
2026-05-04 19:04 50.76695 7.07685 1922 ft 104 kts 154°
2026-05-04 19:04 50.76046 7.08176 1911 ft 104 kts 155°
2026-05-04 19:04 50.75379 7.08675 1838 ft 108 kts 154°
2026-05-04 19:04 50.74716 7.09205 1813 ft 98 kts 151°
2026-05-04 19:05 50.74172 7.09814 1727 ft 95 kts 138°
2026-05-04 19:05 50.73740 7.10607 1600 ft 97 kts 129°
2026-05-04 19:05 50.73336 7.11432 1532 ft 93 kts 130°
2026-05-04 19:05 50.72964 7.12236 1497 ft 89 kts 126°
2026-05-04 19:06 50.72646 7.13084 1439 ft 91 kts 120°
2026-05-04 19:06 50.72600 7.14092 1325 ft 102 kts 72°
2026-05-04 19:06 50.73066 7.14941 1232 ft 101 kts 49°
2026-05-04 19:06 50.73579 7.15583 1134 ft 91 kts 38°
2026-05-04 19:07 50.74216 7.15689 1072 ft 103 kts 343°
2026-05-04 19:07 50.74767 7.14970 1011 ft 99 kts 304°
2026-05-04 19:07 50.75148 7.14136 901 ft 92 kts 312°
2026-05-04 19:07 50.75674 7.13596 754 ft 93 kts 346°
2026-05-04 19:08 50.76297 7.13445 665 ft 88 kts 358°
2026-05-04 19:08 50.76888 7.13504 643 ft 84 kts 21°
2026-05-04 19:08 50.77243 7.13721 662 ft 82 kts 36°
2026-05-04 19:08 50.77376 7.14392 526 ft 71 kts 131°
2026-05-04 19:09 50.77164 7.15084 344 ft 72 kts 110°
2026-05-04 19:09 50.77007 7.15785 210 ft 59 kts 111°
2026-05-04 19:09 50.76905 7.16252 206 ft 36 kts 108°
2026-05-04 19:09 50.76836 7.16582 199 ft 29 kts 109°
2026-05-04 19:10 50.76795 7.16756 204 ft 12 kts 128°
2026-05-04 19:10 50.76750 7.16791 199 ft 11 kts 179°
2026-05-04 19:10 50.76710 7.16715 202 ft 8 kts 292°
2026-05-04 19:10 50.76737 7.16591 205 ft 15 kts 289°
2026-05-04 19:11 50.76732 7.16487 205 ft 8 kts 199°
2026-05-04 19:11 50.76697 7.16519 205 ft 8 kts 116°
2026-05-04 19:11 50.76695 7.16610 211 ft 9 kts 316°
2026-05-04 19:11 50.76693 7.16597 210 ft 0 kts 206°
2026-05-04 19:12 50.76692 7.16596 211 ft 0 kts 199°
2026-05-04 19:29 50.76691 7.16596 211 ft 1 kts 198°
2026-05-04 19:29 50.76685 7.16571 209 ft 4 kts 287°
2026-05-04 19:29 50.76696 7.16523 205 ft 5 kts 292°
2026-05-04 19:29 50.76732 7.16490 206 ft 8 kts 12°
2026-05-04 19:30 50.76766 7.16465 207 ft 7 kts 308°
2026-05-04 19:30 50.76785 7.16374 204 ft 14 kts 288°
2026-05-04 19:30 50.76825 7.16183 206 ft 20 kts 289°
2026-05-04 19:30 50.76874 7.15963 206 ft 21 kts 288°
2026-05-04 19:31 50.76915 7.15773 206 ft 10 kts 289°
2026-05-04 19:31 50.76940 7.15709 210 ft 4 kts 44°
2026-05-04 19:31 50.76940 7.15710 210 ft 0 kts 51°
2026-05-04 19:34 50.76946 7.15720 207 ft 5 kts 38°
2026-05-04 19:35 50.76961 7.15723 206 ft 0 kts 323°
2026-05-04 19:35 50.76970 7.15725 206 ft 5 kts 17°
2026-05-04 19:35 50.77013 7.15759 207 ft 5 kts 102°
2026-05-04 19:35 50.77012 7.15766 205 ft 0 kts 109°
2026-05-04 19:36 50.77001 7.15815 210 ft 24 kts 109°
2026-05-04 19:36 50.76886 7.16328 224 ft 70 kts 111°
2026-05-04 19:36 50.76743 7.17112 429 ft 75 kts 108°
2026-05-04 19:37 50.76605 7.17900 648 ft 73 kts 106°
2026-05-04 19:37 50.76448 7.18622 840 ft 69 kts 109°
2026-05-04 19:37 50.76310 7.19377 954 ft 76 kts 113°
2026-05-04 19:37 50.75971 7.19935 1144 ft 77 kts 160°
2026-05-04 19:38 50.75368 7.19887 1148 ft 91 kts 199°
2026-05-04 19:38 50.74979 7.19173 1136 ft 90 kts 252°
2026-05-04 19:38 50.74905 7.18168 1114 ft 98 kts 265°
2026-05-04 19:38 50.75033 7.17069 1113 ft 107 kts 284°
2026-05-04 19:39 50.75260 7.15930 1123 ft 111 kts 285°
2026-05-04 19:39 50.75492 7.14871 1131 ft 90 kts 288°
2026-05-04 19:39 50.75743 7.13970 951 ft 92 kts 296°
2026-05-04 19:39 50.76213 7.13384 805 ft 89 kts 352°
2026-05-04 19:40 50.76800 7.13434 722 ft 82 kts 21°
2026-05-04 19:40 50.77263 7.13893 640 ft 78 kts 65°
2026-05-04 19:40 50.77254 7.14683 452 ft 75 kts 117°
2026-05-04 19:40 50.77084 7.15425 243 ft 70 kts 111°
2026-05-04 19:41 50.76952 7.16016 207 ft 44 kts 108°
2026-05-04 19:41 50.76830 7.16620 283 ft 67 kts 109°
2026-05-04 19:41 50.76699 7.17351 502 ft 68 kts 109°
2026-05-04 19:41 50.76515 7.18024 705 ft 66 kts 116°
2026-05-04 19:42 50.76325 7.18681 857 ft 64 kts 111°
2026-05-04 19:42 50.76124 7.19369 961 ft 70 kts 137°
2026-05-04 19:42 50.75647 7.19482 1108 ft 78 kts 197°
2026-05-04 19:42 50.75139 7.18981 1177 ft 95 kts 224°
2026-05-04 19:43 50.74867 7.18002 1186 ft 102 kts 251°
2026-05-04 19:43 50.74724 7.16872 1194 ft 106 kts 267°
2026-05-04 19:43 50.74940 7.15749 1165 ft 110 kts 290°
2026-05-04 19:43 50.75275 7.14637 1060 ft 112 kts 296°
2026-05-04 19:44 50.75729 7.13644 984 ft 112 kts 323°
2026-05-04 19:44 50.76425 7.13309 843 ft 96 kts
2026-05-04 19:44 50.77011 7.13522 738 ft 82 kts 27°
2026-05-04 19:44 50.77347 7.14092 634 ft 69 kts 85°
2026-05-04 19:45 50.77225 7.14820 439 ft 74 kts 116°
2026-05-04 19:45 50.77052 7.15574 227 ft 69 kts 110°
2026-05-04 19:45 50.76928 7.16144 210 ft 44 kts 108°
2026-05-04 19:45 50.76811 7.16709 242 ft 68 kts 109°
2026-05-04 19:46 50.76675 7.17469 462 ft 71 kts 110°
2026-05-04 19:46 50.76524 7.18215 659 ft 70 kts 110°
2026-05-04 19:46 50.76371 7.18940 832 ft 70 kts 111°
2026-05-04 19:46 50.76095 7.19509 995 ft 68 kts 163°
2026-05-04 19:47 50.75617 7.19203 1096 ft 82 kts 216°
2026-05-04 19:47 50.75197 7.18480 1247 ft 98 kts 236°
2026-05-04 19:47 50.74969 7.17400 1196 ft 107 kts 254°
2026-05-04 19:47 50.74928 7.16217 1165 ft 109 kts 281°
2026-05-04 19:48 50.75222 7.15146 1192 ft 103 kts 293°
2026-05-04 19:48 50.75533 7.14185 1144 ft 95 kts 297°
2026-05-04 19:48 50.75909 7.13347 1031 ft 93 kts 319°
2026-05-04 19:48 50.76482 7.13014 925 ft 88 kts
2026-05-04 19:49 50.77059 7.13199 838 ft 82 kts 28°
2026-05-04 19:49 50.77435 7.13754 754 ft 70 kts 82°
2026-05-04 19:49 50.77296 7.14459 583 ft 70 kts 114°
2026-05-04 19:49 50.77135 7.15206 313 ft 73 kts 113°
2026-05-04 19:50 50.76984 7.15893 210 ft 54 kts 111°
2026-05-04 19:50 50.76884 7.16350 208 ft 47 kts 108°
2026-05-04 19:50 50.76756 7.17024 313 ft 70 kts 108°
2026-05-04 19:50 50.76632 7.17762 541 ft 69 kts 107°
2026-05-04 19:51 50.76513 7.18496 699 ft 67 kts 107°
2026-05-04 19:51 50.76368 7.19205 851 ft 72 kts 111°
2026-05-04 19:51 50.76023 7.19663 1066 ft 73 kts 180°
2026-05-04 19:51 50.75530 7.19182 1121 ft 96 kts 224°
2026-05-04 19:52 50.75082 7.18329 1159 ft 103 kts 229°
2026-05-04 19:52 50.74849 7.17262 1192 ft 109 kts 264°
2026-05-04 19:52 50.74971 7.16075 1164 ft 113 kts 284°
2026-05-04 19:52 50.75201 7.14948 1188 ft 100 kts 286°
2026-05-04 19:53 50.75425 7.14020 1119 ft 86 kts 289°
2026-05-04 19:53 50.75747 7.13248 1003 ft 84 kts 318°
2026-05-04 19:53 50.76276 7.12894 845 ft 82 kts
2026-05-04 19:53 50.76802 7.13106 778 ft 75 kts 30°
2026-05-04 19:54 50.77258 7.13522 724 ft 73 kts 50°
2026-05-04 19:54 50.77388 7.14193 639 ft 67 kts 116°
2026-05-04 19:54 50.77209 7.14886 429 ft 72 kts 113°
2026-05-04 19:54 50.77043 7.15619 217 ft 69 kts 111°
2026-05-04 19:55 50.76920 7.16179 206 ft 42 kts 108°
2026-05-04 19:55 50.76809 7.16705 217 ft 67 kts 109°
2026-05-04 19:55 50.76674 7.17436 448 ft 68 kts 109°
2026-05-04 19:55 50.76550 7.18144 650 ft 65 kts 102°
2026-05-04 19:56 50.76481 7.18617 749 ft 66 kts 109°
2026-05-04 19:56 50.76392 7.19298 982 ft 62 kts 112°
2026-05-04 19:56 50.76061 7.19692 1131 ft 69 kts 185°
2026-05-04 19:56 50.75576 7.19232 1140 ft 94 kts 214°
2026-05-04 19:57 50.75078 7.18541 1168 ft 96 kts 225°
2026-05-04 19:57 50.74855 7.17540 1162 ft 108 kts 266°
2026-05-04 19:57 50.75073 7.16369 1137 ft 113 kts 300°
2026-05-04 19:57 50.75455 7.15288 1117 ft 112 kts 298°
2026-05-04 19:58 50.75806 7.14230 1152 ft 107 kts 295°
2026-05-04 19:58 50.76257 7.13354 1060 ft 101 kts 334°
2026-05-04 19:58 50.76887 7.13212 926 ft 84 kts 18°
2026-05-04 19:58 50.77305 7.13677 726 ft 71 kts 76°
2026-05-04 19:59 50.77297 7.14389 549 ft 64 kts 110°
2026-05-04 19:59 50.77146 7.15130 280 ft 75 kts 111°
2026-05-04 19:59 50.76999 7.15816 215 ft 51 kts 112°
2026-05-04 19:59 50.76909 7.16237 206 ft 33 kts 107°
2026-05-04 20:00 50.76811 7.16683 205 ft 64 kts 112°
2026-05-04 20:00 50.76677 7.17413 401 ft 70 kts 108°
2026-05-04 20:00 50.76544 7.18136 639 ft 64 kts 108°
2026-05-04 20:00 50.76361 7.18782 754 ft 71 kts 113°
2026-05-04 20:01 50.76054 7.19351 962 ft 72 kts 164°
2026-05-04 20:01 50.75563 7.18988 1062 ft 87 kts 219°
2026-05-04 20:01 50.75212 7.18178 1176 ft 103 kts 245°
2026-05-04 20:01 50.74968 7.17076 1156 ft 109 kts 250°
2026-05-04 20:02 50.75008 7.15909 1226 ft 108 kts 290°
2026-05-04 20:02 50.75385 7.14857 1158 ft 108 kts 302°
2026-05-04 20:02 50.75776 7.13998 1115 ft 92 kts 307°
2026-05-04 20:02 50.76253 7.13294 953 ft 98 kts 331°
2026-05-04 20:03 50.76897 7.13139 820 ft 94 kts 19°
2026-05-04 20:03 50.77395 7.13672 660 ft 80 kts 65°
2026-05-04 20:03 50.77348 7.14414 524 ft 71 kts 119°
2026-05-04 20:03 50.77145 7.15136 326 ft 73 kts 111°
2026-05-04 20:04 50.76994 7.15840 213 ft 56 kts 112°
2026-05-04 20:04 50.76897 7.16284 208 ft 33 kts 111°